Location: *
(55.5817°S, 142.4781°W)
Time: 07:45:58
(UTC+00:00)

Cosmos 1461 - Pass Details

Date: 29 April 2025
Orbit: 450 x 543 km, 65.0° (Epoch: 23 May)

Event Time Altitude Azimuth Distance (km) Brightness Sun altitude
Exits shadow 14:37:48 31° 340° (NNW) 851 3.6 -19.0°
Drops below altitude 10° 14:40:11 10° 14° (NNE) 1,610 5.3 -18.7°
Sets 14:42:22 0° 22° (NNE) 2,473 6.4 -18.4°
